Regional Weather Roundup
Issued by NWS

Home | Current Version | Previous Version | Graphics & Text | Print | Product List | Glossary On
Versions: 1 2 3 4 5 6 7 8 9 10 11 12 13 14 15 16 17 18 19 20 21 22 23 24 25 26 27 28 29 30 31 32 33 34 35 36 37 38 39 40 41 42 43 44 45 46 47 48 49 50
696
ASUS43 KLOT 280909
RWRIL

ILLINOIS REGIONAL WEATHER ROUNDUP
NATIONAL WEATHER SERVICE CHICAGO/ROMEOVILLE IL
400 AM CDT FRI JUL 28 2017

NOTE: "FAIR" INDICATES FEW OR NO CLOUDS BELOW 12,000 FEET WITH NO
SIGNIFICANT WEATHER AND/OR OBSTRUCTIONS TO VISIBILITY.

* THESE STATIONS ARE NOT UNDER NWS QUALITY CONTROL. THEY ALSO MAY NOT
  REPORT WEATHER SUCH AS PRECIPITATION OR FOG.

ILZ001-002-007-009-015-016-024-281000-
NORTHWEST ILLINOIS

CITY           SKY/WX    TMP DP  RH WIND       PRES   REMARKS
MOLINE         CLEAR     65  58  78 NE3       29.97S
STERLING*      CLEAR     63  57  81 N7        29.97F
SAVANNA*       PTCLDY    63  56  80 N6        29.99S
$$

ILZ003-004-008-010-011-017-018-281000-
NORTH CENTRAL ILLINOIS

CITY           SKY/WX    TMP DP  RH WIND       PRES   REMARKS
ROCKFORD       CLEAR     65  57  75 N10       29.99S
FREEPORT*      CLEAR     58  56  90 N3        30.01S
ROCHELLE*      PTCLDY    62  58  86 N9        29.97S
DE KALB*       CLEAR     61  58  90 N5        29.97F
PERU*          PTCLDY    62  57  85 N9        29.94F
$$

ILZ005-006-012>014-019>023-281000-
NORTHEAST ILLINOIS

CITY           SKY/WX    TMP DP  RH WIND       PRES   REMARKS
CHICAGO-OHARE  PTCLDY    69  63  81 N13       29.94S
CHICAGO-MIDWAY PTCLDY    71  65  81 N13       29.92F
AURORA         CLEAR     65  61  87 NE8       29.95F
LANSING*       PTCLDY    71  63  75 N6        29.91F
JOLIET*        CLEAR     69  64  85 N6        29.92F
WAUKEGAN       CLEAR     67  64  90 NE10G17   29.96S
DUPAGE AIRPORT CLEAR     63  61  93 N7        29.94F
KANKAKEE*      CLOUDY    68  64  88 N3        29.90F
WHEELING       CLEAR     68  65  90 N7        29.96F
MORRIS*        CLEAR     64  61  90 CALM      29.91F
ROMEOVILLE*    CLOUDY    67  61  83 N10       29.92F
$$

LMZ740>746-281000-
SOUTHERN LAKE MICHIGAN

STATION/POSITION SKY/WX   TEMP    WIND        PRES    VSBY  WAVE
                          AIR SEA DIR/SP/G                  HT/PER
                          (F)     (DEG/KT/KT) (MB)    (MI)  (FT/S)
SOUTHERN BUOY              71 72   40/ 12/ 14 1014.3          3/ 6
WILMETTE HARBOR            71 71   10/ 14/ 16   N/A           5/ 6
HARRISON CRIB              72     360/ 18/ 19   N/A
BURNHAM HARBOR             70                   N/A
CALUMET HARBOR             71     350/  8/ 12 1012.8F
BURNS HARBOR               73      50/ 15/ 18 1013.2S
MICHIGAN CITY              71      50/ 14/ 16   N/A
MICHIGAN CITY 6N           72 74   70/ 12/ 16   N/A           4/ 6
ST. JOSEPH                 69 71   90/  8/ 12 1013.1          3/ 6
$$

ILZ025>027-034>036-040-047-049-050-058-095>099-281000-
WEST-CENTRAL ILLINOIS

CITY           SKY/WX    TMP DP  RH WIND       PRES   REMARKS
QUINCY         CLOUDY    68  63  84 N8        29.93S
GALESBURG*     PTCLDY    59  56  89 N5        29.97S
MACOMB*        CLEAR     63  58  84 NE8       29.97S
JACKSONVILLE*  PTCLDY    66  62  86 N5        29.91S
PITTSFIELD*    PTCLDY    71  63  78 NE3       29.93S
$$

ILZ028>032-037-038-041>044-048-051>054-059>061-281000-
CENTRAL ILLINOIS

CITY           SKY/WX    TMP DP  RH WIND       PRES   REMARKS
PONTIAC        MOCLDY    64  62  96 N6        29.92F
BLOOMINGTON    CLEAR     64  58  80 N10       29.92F
DECATUR        CLOUDY    68  63  84 N12       29.88F
PEORIA         PTCLDY    64  57  78 N6        29.93F
LACON*         CLEAR     61  58  90 N5        29.94S
LINCOLN*       CLEAR     66  63  88 CALM      29.91S
SPRINGFIELD    PTCLDY    69  64  84 N6        29.90F
TAYLORVILLE    PTCLDY    67  66  95 N8        29.88F
$$

ILZ033-039-045-046-055>057-062-063-281000-
EAST-CENTRAL ILLINOIS

CITY           SKY/WX    TMP DP  RH WIND       PRES   REMARKS
CHAMPAIGN      CLEAR     67  63  87 N6        29.88F
RANTOUL*       MOCLDY    69  65  88 N9        29.88F
MATTOON        PTCLDY    67  67 100 N8        29.86F
PARIS*         PTCLDY    67  67  99 N3        29.87S
$$

ILZ079-100>102-281000-
SOUTHWEST ILLINOIS

CITY           SKY/WX    TMP DP  RH WIND       PRES   REMARKS
ALTON          MOCLDY    71  67  89 NE3       29.88S
BELLEVILLE     MOCLDY    74  73  94 N7        29.87R
CAHOKIA*       CLOUDY    76  72  87 NE8       29.86R
SPARTA*        CLOUDY    74  74  98 N3        29.86S
$$

ILZ064>066-069>071-074>076-080>082-084>086-088>090-092>094-281000-
SOUTH-CENTRAL ILLINOIS

CITY           SKY/WX    TMP DP  RH WIND       PRES   REMARKS
CARBONDALE     CLOUDY    76  76 100 W6        29.82F
CAIRO*         CLOUDY    77  75  93 W6        29.83S
EFFINGHAM*     PTCLDY    69  69 100 N5        29.87F
MARION         CLOUDY    77  77 100 CALM      29.83S
MT. VERNON     CLOUDY    75  74  96 NE3       29.84S
CENTRALIA*     CLOUDY    75  75  99 N6        29.84S FOG
SALEM*         CLOUDY    74  71  93 N6        29.85S FOG
METROPOLIS*    CLOUDY    78  76  94 SW3       29.84S HX  82
$$

ILZ067-068-072-073-078-083-087-091-281000-
SOUTHEAST ILLINOIS

CITY           SKY/WX    TMP DP  RH WIND       PRES   REMARKS
LAWRENCEVILLE  CLOUDY    75  73  93 N7        29.83S FOG
FLORA*         CLOUDY    76  73  91 NE6       29.84S FOG
FAIRFIELD*     CLOUDY    75  75 100 CALM      29.82F
HARRISBURG*    CLOUDY    75  75  99 CALM      29.83F
ROBINSON*      CLOUDY    71  70  99 N7        29.84S FOG
CARMI*         DRIZZLE   74  74 100 CALM      29.82F
$$

ABBREVIATIONS USED IN REMARKS
   TC - TEMPERATURE IN CELSIUS
  WCI - WIND CHILL INDEX
   HX - HEAT INDEX
  VSB - VISIBILITY
$$





USA.gov is the U.S. government's official web portal to all federal, state and local government web resources and services.